Home   Weather   Tallinn   Past weeks

Flag for Estonia Past Weather in Tallinn, Estonia — Yesterday and Last 2 Weeks

45 °F

Drizzle. Mostly cloudy.

Feels Like: 39 °F
Forecast: 46 / 50 °F
Wind: 12 mph from Southwest

Location: Tallinn

Current Time: Oct 27, 2016 at 3:58:15 PM

Latest Report: Oct 27, 2016 at 3:20 PM

Visibility: N/A

Pressure: 30.09 "Hg

Humidity: 93%

Dew Point: 43 °F

Location of TallinnLocation

Past Weather in Tallinn — Graph


Tallinn Temperature Yesterday

Maximum temperature yesterday: 37 °F (at 7:20 AM)
Minimum temperature yesterday: 30 °F (at 10:50 PM)
Average temperature yesterday: 36 °F

High & Low Weather Summary for the Past Weeks

High46 °F (Oct 17, 2:50 PM)100% (Oct 14, 7:20 AM)30.69 "Hg (Oct 14, 7:20 AM)
Low27 °F (Oct 19, 3:20 AM)57% (Oct 19, 4:20 PM)30.04 "Hg (Oct 26, 1:20 AM)
Average36 °F84%30.45 "Hg
* Reported Oct 12 2:20 PM — Oct 27 2:20 PM, Tallinn, Weather by CustomWeather, © 2016

Note: Actual official high and low records may vary slightly from our data, if they occured in-between our weather recording intervals... More about our weather records


Tallinn Weather History for the Previous 24 Hours

Scroll right to see more
Time TempWeatherWind HumidityBarometerVisibility
2:20 PM
Thu, Oct 27
45 °FLight rain. Mostly cloudy.12 mph93%30.12 "HgN/A
1:50 PM43 °FLight rain. Low clouds.12 mph100%30.12 "HgN/A
1:20 PM43 °FLight rain. Mostly cloudy.13 mph100%30.12 "HgN/A
12:50 PM43 °FLight rain. Cloudy.13 mph93%30.12 "HgN/A
12:20 PM43 °FDrizzle. Low clouds.14 mph93%30.15 "HgN/A
11:50 AM41 °FLight rain. Mostly cloudy.10 mph100%30.15 "Hg5 mi
11:20 AM41 °FLight rain. More clouds than sun.9 mph93%30.15 "HgN/A
10:50 AM41 °FLight rain. More clouds than sun.9 mph93%30.15 "HgN/A
10:20 AM41 °FLight rain. Partly sunny.8 mph93%30.15 "HgN/A
9:50 AM39 °FBroken clouds.9 mph93%30.15 "HgN/A
9:20 AM39 °FPassing clouds.9 mph93%30.15 "HgN/A
8:50 AM37 °FPassing clouds.10 mph100%30.15 "HgN/A
8:20 AM37 °FClear.9 mph93%30.15 "Hg10 mi
7:50 AM37 °FPassing clouds.9 mph93%30.15 "HgN/A
7:20 AM37 °FPassing clouds.9 mph93%30.15 "HgN/A
6:50 AM36 °FPassing clouds.8 mph100%30.15 "HgN/A
6:20 AM36 °FPassing clouds.9 mph93%30.15 "HgN/A
5:50 AM36 °FPassing clouds.9 mph93%30.18 "HgN/A
5:20 AM36 °FLight rain. Passing clouds.9 mph87%30.18 "HgN/A
4:50 AM36 °FPassing clouds.9 mph87%30.18 "HgN/A
4:20 AM36 °FPassing clouds.9 mph87%30.18 "HgN/A
3:50 AM34 °FPassing clouds.7 mph93%30.18 "HgN/A
3:20 AM34 °FLight rain. Partly cloudy.7 mph93%30.18 "HgN/A
2:50 AM34 °FPassing clouds.7 mph87%30.21 "HgN/A
2:20 AM34 °FOvercast.8 mph87%30.21 "HgN/A
1:50 AM34 °FPartly cloudy.7 mph87%30.21 "HgN/A
1:20 AM34 °FPassing clouds.6 mph87%30.21 "HgN/A
12:50 AM32 °FPassing clouds.9 mph93%30.21 "HgN/A
12:20 AM32 °FPassing clouds.8 mph93%30.21 "HgN/A
11:50 PM
Wed, Oct 26
32 °FClear.5 mph87%30.21 "Hg10 mi
11:20 PM30 °FClear.5 mph93%30.21 "Hg10 mi
10:50 PM30 °FPassing clouds.5 mph93%30.21 "HgN/A
10:20 PM36 °FPassing clouds.6 mph75%30.18 "HgN/A
9:50 PM36 °FPassing clouds.2 mph70%30.18 "HgN/A
9:20 PM36 °FPassing clouds.7 mph75%30.18 "HgN/A
8:50 PM37 °FPassing clouds.9 mph70%30.18 "HgN/A
8:20 PM36 °FOvercast.8 mph75%30.18 "HgN/A
7:50 PM36 °FOvercast.10 mph75%30.18 "HgN/A
7:20 PM36 °FOvercast.9 mph75%30.18 "HgN/A
6:50 PM36 °FOvercast.10 mph81%30.15 "HgN/A
6:20 PM37 °FOvercast.10 mph75%30.15 "HgN/A
5:50 PM37 °FOvercast.12 mph81%30.15 "HgN/A
5:20 PM37 °FOvercast.9 mph81%30.15 "HgN/A
4:50 PM37 °FSprinkles. More clouds than sun.8 mph81%30.15 "HgN/A
4:20 PM37 °FMostly cloudy.8 mph87%30.12 "HgN/A
3:50 PM37 °FMostly cloudy.10 mph87%30.12 "HgN/A
3:20 PM37 °FOvercast.12 mph87%30.12 "HgN/A
Weather by CustomWeather, © 2016

See weather overviewHow to use our weather pages